Regional Weather Roundup
Issued by NWS

Current Version | Previous Version | Text Only | Print | Product List | Glossary On
Versions: 1 2 3 4 5 6 7 8 9 10 11 12 13 14 15 16 17 18 19 20 21 22 23 24 25 26 27 28 29 30 31 32 33 34 35 36 37 38 39 40 41 42 43 44 45 46 47 48 49 50
000
ASCA44 KEWX 211120
RWRMX

LATIN AMERICA AND CARIBBEAN REGIONAL WEATHER ROUNDUP
NATIONAL WEATHER SERVICE AUSTIN/SAN ANTONIO TX
600 AM CDT WED OCT 21 2020

NOTE: "FAIR" INDICATED FEW OR NO CLOUDS BELOW 12,000 FEET WITH NO
SIGNIFICANT WEATHER AND/OR OBSTRUCTIONS TO VISIBILITY.

BAJA CALIFORNIA

CITY           SKY/WX    TMP DP  RH WIND       PRES   REMARKS
S.J. DEL CABO    N/A    N/A N/A N/A MISG        N/A
TIJUANA          N/A    N/A N/A N/A MISG        N/A

NORTHWESTERN MEXICO

CITY           SKY/WX    TMP DP  RH WIND       PRES   REMARKS
DURANGO        CLEAR     50  41  71 CALM      30.18
HERMOSILLO       N/A    N/A N/A N/A MISG        N/A

NORTHEASTERN MEXICO

CITY           SKY/WX    TMP DP  RH WIND       PRES   REMARKS
MONCLOVA         N/A    N/A N/A N/A MISG        N/A
MONTERREY      PTCLDY    68  68 100 CALM      29.94S
REYNOSA          N/A    N/A N/A N/A MISG        N/A
SALTILLO       CLEAR     59  39  47 N6        30.12
CD. VICTORIA     N/A    N/A N/A N/A MISG        N/A

WESTERN MEXICO

CITY           SKY/WX    TMP DP  RH WIND       PRES   REMARKS
AGUASCALIENTES CLEAR     54  41  62 NW2       30.21
COLIMA           N/A    N/A N/A N/A MISG        N/A
DEL BAJIO      CLEAR     55  46  71 CALM      30.23S
GUADALAJARA    CLEAR     59  55  88 E2        30.11
MAZATLAN       PTCLDY    79  77  94 NE5       29.78F
P. VALLARTA    CLEAR     79  77  94 CALM      29.77
URUAPAN          N/A    N/A N/A N/A MISG        N/A
ZACATECAS      CLEAR     48  39  71 S3        30.19

CENTRAL MEXICO

CITY           SKY/WX    TMP DP  RH WIND       PRES   REMARKS
CUERNAVACA       N/A    N/A N/A N/A MISG        N/A
MEXICO CITY    MOCLDY    59  46  63 NE3       30.28S
MORELIA        CLEAR     45  45 100 CALM      30.18
POZA RICA        N/A    N/A N/A N/A MISG        N/A
QUERETARO      PTCLDY    48  48 100 SE6       30.26S WCI  46
S. LUIS POTOSI PTCLDY    54  48  82 S5        30.22R
TOLUCA         PTCLDY    48  45  87 CALM      30.31R

SOUTHERN MEXICO

CITY           SKY/WX    TMP DP  RH WIND       PRES   REMARKS
ACAPULCO         N/A    N/A N/A N/A MISG        N/A
B. DE HUATULCO   N/A    N/A N/A N/A MISG        N/A
P. ESCONDIDO     N/A    N/A N/A N/A MISG        N/A
VERACRUZ       CLEAR     72  72 100 CALM      29.88

YUCATAN PENINSULA

CITY           SKY/WX    TMP DP  RH WIND       PRES   REMARKS
CAMPECHE         N/A    N/A N/A N/A MISG        N/A
CANCUN         PTCLDY    77  75  94 CALM      29.76R
CHETUMAL         N/A    N/A N/A N/A MISG        N/A
CD. DEL CARMEN PTCLDY    79  75  89 CALM      29.81
COZUMEL          N/A    N/A N/A N/A MISG        N/A
MERIDA         PTCLDY    75  75 100 W3        29.78R
MINATITLAN       N/A    N/A N/A N/A MISG        N/A
TAPACHULA        N/A    N/A N/A N/A MISG        N/A
TUX. GUTIERREZ PTCLDY    66  63  88 W3        29.92
VILLAHERMOSA   MOCLDY    75  73  94 CALM      29.85

CENTRAL AMERICA

CITY           SKY/WX    TMP DP  RH WIND       PRES   REMARKS
BELIZE CITY      N/A     75  73  94 W3        29.78
MANAGUA        PTSUNNY   75  73  94 S5        29.77R

CARIBBEAN

CITY           SKY/WX    TMP DP  RH WIND       PRES   REMARKS
ARUBA          PTCLDY    77  75  94 E6        29.83S
CURACAO        PTCLDY    79  75  89 SE5       29.86R
KINGSTON       LGT RAIN  79  75  89 E12       29.83R
NASSAU         LGT RAIN  77  73  88 SE5       29.94
SAN JUAN       PTCLDY    79  73  83 S3        29.90R
SANTO DOMINGO  PTCLDY    72  72 100 NE5       29.86S
ST. CROIX      CLEAR     77  73  88 CALM      29.91R
ST. KITTS      MOSUNNY   77  73  88 CALM      29.92R
ST. MAARTEN    MOSUNNY   84  75  74 VRB3      29.92S HX  92
ST. THOMAS     CLEAR     79  72  78 CALM      29.88R

$$





USA.gov is the U.S. government's official web portal to all federal, state and local government web resources and services.